Location: San Francisco
(37.7790°N, 122.4199°W)
Time: 01:09:19
(UTC-07:00)

ISS - Visible Passes

Search period start: 13 April 2024 00:00
Search period end: 23 April 2024 00:00
Orbit: 413 x 419 km, 51.6° (Epoch: 13 April)

Date Brightness Start Highest point End Pass type
(mag) Time Alt. Az. Time Alt. Az. Time Alt. Az.
18 Apr -2.1 05:50:45 10° SSW 05:53:42 30° SE 05:56:40 10° ENE visible
19 Apr -1.3 05:03:06 11° S 05:05:11 17° SE 05:07:24 10° E visible
20 Apr -3.8 05:49:36 10° SW 05:52:55 82° NW 05:56:15 10° NE visible
21 Apr -3.3 05:02:55 30° SSW 05:04:14 52° SE 05:07:29 10° ENE visible
22 Apr -1.9 04:16:11 25° ESE 04:16:11 25° ESE 04:18:27 10° ENE visible
22 Apr -2.5 05:49:15 10° W 05:52:14 30° NNW 05:55:13 10° NNE visible
